McGuire AFB, NJ

12:16 PM EDT on May 24, 2018 (GMT -0400)
McGuire Air Force Base

Weather History for KWRI - February, 2014

Change the Weather History Date:

Tuesday, February 25, 2014

  Actual Average Record
Temperature  
Mean Temperature 27 °F -  
Max Temperature 32 °F 45 °F 72 °F (2017)
Min Temperature 22 °F 27 °F 7 °F (2015)
Degree Days  
Heating Degree Days 38    
Moisture  
Dew Point 15 °F    
Average Humidity 55    
Maximum Humidity 67    
Minimum Humidity 44    
Precipitation  
Precipitation 0.00 in - - ()
Sea Level Pressure  
Sea Level Pressure 30.03 in    
Wind  
Wind Speed 10 mph (WNW)    
Max Wind Speed 17 mph    
Max Gust Speed 23 mph    
Visibility 10 miles    
Events Snow    
Averages and records for this station are not official NWS values.
T = Trace of Precipitation, MM = Missing Value Source: NWS Daily Summary

Daily Weather History Graph

Daily Weather History Graph

Search for Another Location

Airport or City:

Astronomy

Feb. 25, 2014 Rise Set
Actual Time 6:37 AM EST 5:45 PM EST
Civil Twilight 6:10 AM EST 6:13 PM EST
Nautical Twilight 5:38 AM EST 6:44 PM EST
Astronomical Twilight 5:07 AM EST 7:15 PM EST
Moon 3:30 AM EST (2/25) 1:48 PM EST (2/25)
Length of Visible Light 12h 02m
Length of Day
11h 08m
Waning Crescent, 18% of the Moon is Illuminated
Feb 25
Waning Crescent
Mar 1
New
Mar 8
First Quarter
Mar 16
Full
Mar 23
Last Quarter

Hourly Weather History & Observations

Time (EST) Temp. Windchill Dew Point Humidity Pressure Visibility Wind Dir Wind Speed Gust Speed Precip Events Conditions
12:58 AM 25.3 °F 16.7 °F 9.1 °F 50% 30.11 in 10.0 mi WNW 8.1 mph - N/A   Clear
1:58 AM 26.4 °F 16.0 °F 9.9 °F 50% 30.10 in 10.0 mi NW 11.5 mph - N/A   Clear
2:58 AM 25.0 °F 19.3 °F 10.2 °F 54% 30.09 in 10.0 mi WNW 4.6 mph - N/A   Clear
3:58 AM 24.4 °F 20.1 °F 10.2 °F 55% 30.09 in 10.0 mi WNW 3.5 mph - N/A   Partly Cloudy
4:58 AM 22.1 °F - 12.6 °F 67% 30.08 in 10.0 mi WSW 2.3 mph - N/A   Mostly Cloudy
5:58 AM 25.7 °F 21.5 °F 11.5 °F 55% 30.09 in 10.0 mi WSW 3.5 mph - N/A   Overcast
6:58 AM 26.8 °F 19.3 °F 10.0 °F 49% 30.09 in 10.0 mi NW 6.9 mph - N/A   Overcast
7:58 AM 27.5 °F 19.3 °F 10.4 °F 49% 30.10 in 10.0 mi West 8.1 mph - N/A   Overcast
8:58 AM 28.9 °F 19.8 °F 9.5 °F 44% 30.10 in 10.0 mi West 10.4 mph - N/A   Overcast
9:49 AM 30.2 °F 18.9 °F 12.2 °F 47% 30.07 in 10.0 mi West 16.1 mph - N/A   Mostly Cloudy
9:58 AM 29.7 °F 19.1 °F 13.8 °F 52% 30.09 in 10.0 mi West 13.8 mph - 0.00 in   Overcast
10:28 AM 28.4 °F 18.5 °F 17.6 °F 64% 30.06 in 10.0 mi West 11.5 mph - N/A   Mostly Cloudy
10:46 AM 28.4 °F 19.1 °F 17.6 °F 64% 30.06 in 10.0 mi West 10.4 mph - N/A   Overcast
10:55 AM 28.4 °F 19.7 °F 17.6 °F 64% 30.05 in 10.0 mi West 9.2 mph - N/A Snow Light Snow
11:34 AM 32.0 °F 21.6 °F 19.4 °F 60% 30.04 in 10.0 mi West 15.0 mph - N/A Snow Light Snow
11:47 AM 30.2 °F 19.8 °F 19.4 °F 64% 30.03 in 10.0 mi WSW 13.8 mph - N/A Snow Light Snow
11:57 AM 30.6 °F 20.7 °F 20.3 °F 66% 30.05 in 10.0 mi West 12.7 mph 19.6 mph 0.00 in   Overcast
12:21 PM 32.0 °F 21.2 °F 19.4 °F 60% 30.02 in 10.0 mi West 16.1 mph - N/A   Overcast
12:26 PM 32.0 °F 20.8 °F 17.6 °F 55% 30.02 in 10.0 mi WNW 17.3 mph - N/A Snow Light Snow
12:32 PM 32.0 °F 22.5 °F 17.6 °F 55% 30.01 in 10.0 mi West 12.7 mph 21.9 mph N/A Snow Light Snow
12:53 PM 32.0 °F 21.6 °F 17.6 °F 55% 30.00 in 10.0 mi West 15.0 mph 23.0 mph N/A   Overcast
12:58 PM 31.3 °F 21.6 °F 17.1 °F 56% 30.02 in 10.0 mi WNW 12.7 mph 23.0 mph 0.00 in   Overcast
1:00 PM 32.0 °F 22.5 °F 17.6 °F 55% 30.00 in 10.0 mi WNW 12.7 mph 23.0 mph N/A Snow Light Snow
1:14 PM 32.0 °F 22.5 °F 17.6 °F 55% 29.99 in 10.0 mi West 12.7 mph 20.7 mph N/A Snow Light Snow
1:17 PM 32.0 °F 21.6 °F 17.6 °F 55% 29.99 in 10.0 mi WNW 15.0 mph 20.7 mph N/A   Overcast
1:37 PM 32.0 °F 21.6 °F 17.6 °F 55% 29.98 in 10.0 mi WNW 15.0 mph 20.7 mph N/A   Overcast
1:38 PM 32.0 °F 23.0 °F 17.6 °F 55% 29.97 in 10.0 mi WNW 11.5 mph 20.7 mph N/A   Overcast
1:41 PM 32.0 °F 22.1 °F 17.6 °F 55% 29.98 in 10.0 mi WNW 13.8 mph - N/A   Overcast
1:48 PM 32.0 °F 21.6 °F 17.6 °F 55% 29.97 in 10.0 mi WNW 15.0 mph 20.7 mph N/A   Overcast
1:58 PM 32.2 °F 22.3 °F 18.0 °F 56% 29.99 in 10.0 mi WNW 13.8 mph 18.4 mph 0.00 in   Overcast
2:58 PM 32.2 °F 22.7 °F 15.3 °F 50% 29.97 in 10.0 mi West 12.7 mph - N/A   Overcast
3:58 PM 32.7 °F 23.4 °F 14.5 °F 47% 29.96 in 10.0 mi NW 12.7 mph - N/A   Overcast
4:33 PM 32.0 °F 23.0 °F 15.8 °F 51% 29.94 in 10.0 mi NW 11.5 mph - N/A   Overcast
4:39 PM 32.0 °F 23.6 °F 15.8 °F 51% 29.94 in 10.0 mi WNW 10.4 mph - N/A   Overcast
4:58 PM 31.1 °F 21.4 °F 14.2 °F 50% 29.97 in 10.0 mi WNW 12.7 mph 20.7 mph 0.00 in   Overcast
5:58 PM 29.8 °F 22.2 °F 12.0 °F 48% 29.99 in 10.0 mi WNW 8.1 mph - N/A   Clear
6:58 PM 28.2 °F 21.0 °F 12.0 °F 51% 30.00 in 10.0 mi WNW 6.9 mph - N/A   Clear
7:58 PM 27.9 °F 19.8 °F 10.8 °F 49% 30.01 in 10.0 mi NW 8.1 mph - N/A   Clear
8:58 PM 26.2 °F 20.7 °F 10.8 °F 52% 30.02 in 10.0 mi WNW 4.6 mph - N/A   Clear
9:58 PM 25.5 °F - 11.5 °F 55% 30.03 in 10.0 mi West 2.3 mph - N/A   Partly Cloudy
10:58 PM 24.1 °F 18.2 °F 12.0 °F 60% 30.01 in 10.0 mi WSW 4.6 mph - N/A   Partly Cloudy
11:58 PM 23.4 °F 18.9 °F 12.4 °F 63% 29.99 in 10.0 mi West 3.5 mph - N/A   Clear